Погода в Искателей

Россия / Ненецкий автономный округ     67°40′39″N   53°07′38″E
темп.,
°C
ветер,
м/с
пор.,
м/с
влажн.,
%
обл.,
%
осадки,
мм/ч
давл.,
гПа
погр.,
м
9 мая, вс
вс900:00+1зюз479581 0.0 1018252
03:00−4ю22977 0.0 101928
06:00+1юв239098 0.0 101964
09:00+3вюв35100100 0.0 101981
12:00+5вюв48100100 0.0 1018141
15:00+7вюв61390100 0.0 1016221
18:00+7вюв71579100 0.0 1013217
21:00+6вюв61287100 1.1 1010146
10 мая, пн
пн1000:00+11ю91782100 0.9 1008379
03:00+7зюз4699100 3.5 1008108
06:00+4з51198100 6.4 1009319
09:00+3зюз61097100 9.8 1013483
12:00+4з71088100 0.2 1016640
15:00+7зюз7106396 0.2 10191225
18:00+7зюз610580 0.0 1020867
21:00+3юз48720 0.0 1022140
11 мая, вт
вт1100:00+2юз49765 0.0 1023137
03:00+2ююз4871100 0.0 1023120
06:00+5юз51078100 0.0 1022364
09:00+5ю4991100 0.8 1021342
12:00+6юз51089100 0.9 1021461
15:00+5зюз3793100 1.0 1022341
18:00+5зюз2493100 0.0 1023199
21:00+5юз3393100 0.0 102358
12 мая, ср
ср1200:00+5ююз4897100 0.6 1021197
03:00+6ю51097100 0.9 1019273
06:00+7ююз71398100 1.2 1016369
09:00+12зюз81689100 1.6 1014612
12:00+10з81588100 0.1 1016849
15:00+7зсз91485100 0.1 1019930
18:00+5сз71186100 0.0 1024715
21:00+3сз59876 0.0 1027453
13 мая, чт
чт1300:000сз399017 0.0 1029331
03:000зсз488486 0.0 1031290
06:00+3сз57626 0.0 1031649
09:00+5сз455259 0.0 10311080
12:00+7сз3446100 0.0 10311233
15:00+7ссз2344100 0.0 10301183
18:00+7ссв114599 0.0 1028947
21:00+5всв356296 0.0 1027134